Location: Aldenham
(51.6667°N, 0.3500°W)
Time: 07:50:38
(UTC+00:00)

Cosmos 1346 Rocket - Pass Details

Date: 18 November 2025
Orbit: 479 x 490 km, 81.2° (Epoch: 12 December)

Event Time Altitude Azimuth Distance (km) Brightness Sun altitude
Rises 17:33:49 0° 357° (N) 2,591 6.1 -13.2°
Reaches altitude 10° 17:36:18 10° 13° (NNE) 1,703 5.1 -13.5°
Enters shadow 17:38:23 20° 45° (NE) 1,191 4.0 -13.9°
